TimePDT,TemperatureF,Dew PointF,Humidity,Sea Level PressureIn,VisibilityMPH,Wind Direction,Wind SpeedMPH,Gust SpeedMPH,PrecipitationIn,Events,Conditions,WindDirDegrees,DateUTC
12:53 AM,57.0,50.0,77,30.02,10.0,ENE,6.9,-,N/A,,Clear,70,2013-10-03 07:53:00
1:53 AM,57.0,48.9,74,30.04,10.0,East,4.6,-,N/A,,Clear,90,2013-10-03 08:53:00
2:53 AM,55.9,48.9,77,30.03,10.0,NW,6.9,-,N/A,,Clear,310,2013-10-03 09:53:00
3:53 AM,57.0,46.0,67,30.04,10.0,North,5.8,-,N/A,,Clear,360,2013-10-03 10:53:00
4:53 AM,55.9,43.0,62,30.04,10.0,NNW,6.9,-,N/A,,Clear,340,2013-10-03 11:53:00
5:53 AM,55.9,42.1,60,30.04,10.0,NNW,6.9,-,N/A,,Clear,330,2013-10-03 12:53:00
6:53 AM,55.0,41.0,59,30.05,10.0,NNW,11.5,-,N/A,,Partly Cloudy,330,2013-10-03 13:53:00
7:53 AM,55.9,39.9,55,30.06,10.0,North,11.5,-,N/A,,Partly Cloudy,350,2013-10-03 14:53:00
8:53 AM,57.9,39.9,51,30.08,10.0,North,11.5,-,N/A,,Clear,350,2013-10-03 15:53:00
9:53 AM,62.1,41.0,46,30.08,10.0,NW,18.4,-,N/A,,Clear,310,2013-10-03 16:53:00
10:53 AM,64.0,39.0,40,30.07,10.0,WNW,15.0,-,N/A,,Clear,290,2013-10-03 17:53:00
11:53 AM,68.0,35.1,30,30.06,10.0,WNW,11.5,-,N/A,,Clear,290,2013-10-03 18:53:00
12:53 PM,68.0,37.9,33,30.03,10.0,NW,18.4,-,N/A,,Clear,320,2013-10-03 19:53:00
1:53 PM,68.0,42.1,39,30.00,10.0,WNW,20.7,-,N/A,,Clear,300,2013-10-03 20:53:00
2:53 PM,68.0,44.1,42,29.99,10.0,West,26.5,-,N/A,,Clear,280,2013-10-03 21:53:00
3:53 PM,69.1,45.0,42,29.97,10.0,West,19.6,-,N/A,,Clear,280,2013-10-03 22:53:00
4:53 PM,69.1,46.9,45,29.96,10.0,West,17.3,-,N/A,,Partly Cloudy,280,2013-10-03 23:53:00
5:53 PM,71.1,44.1,38,29.96,10.0,West,13.8,-,N/A,,Partly Cloudy,260,2013-10-04 00:53:00
6:53 PM,70.0,30.0,23,29.96,10.0,NNW,13.8,-,N/A,,Partly Cloudy,340,2013-10-04 01:53:00
7:53 PM,68.0,30.0,24,29.97,10.0,NNW,13.8,-,N/A,,Partly Cloudy,340,2013-10-04 02:53:00
9:53 PM,68.0,30.0,24,29.97,10.0,NNW,11.5,-,N/A,,Clear,330,2013-10-04 04:53:00
10:53 PM,68.0,30.0,24,29.96,10.0,North,21.9,-,N/A,,Clear,360,2013-10-04 05:53:00
11:53 PM,70.0,27.0,20,29.97,10.0,North,18.4,-,N/A,,Clear,350,2013-10-04 06:53:00